Location: Utrecht
(52.0917°N, 5.1178°E)
Time: 01:58:22
(UTC+02:00)

X-37B - Pass Details

Date: 29 June 2021
Orbit: 383 x 392 km, 45.0° (Epoch: 01 July)

Event Time Altitude Azimuth Distance (km) Brightness Sun altitude
Rises 00:03:19 0° 258° (WSW) 2,258 4.6 -11.6°
Reaches altitude 10° 00:05:45 10° 240° (WSW) 1,403 3.3 -11.7°
Maximum altitude 00:08:04 19° 193° (SSW) 992 2.2 -11.9°
Enters shadow 00:08:22 19° 185° (S) 1,000 2.1 -11.9°
